CTN35Y LYBE-LDPL

Flight info

Callsign CTN35Y
Flight time 0h 54m
Altitude 38000
Route TUVAR4V/30R TUVAR DCT TEBLI DCT KULEN
Aircraft A319/M-SDE3FGHIRWY/LB1

Departure

Time 2026-04-26 18:15
Airport Belgrade Nikola Tesla Airport (LYBE)

Arrival

Time 2026-04-26 19:09
Airport Pula Airport (LDPL)
Time Latitude Longitude Altitude Speed Heading
2026-04-26 17:34 44.81974 20.29313 306 ft 0 kts 302°
2026-04-26 18:01 44.81966 20.29331 308 ft 4 kts 302°
2026-04-26 18:01 44.81955 20.29358 307 ft 4 kts 304°
2026-04-26 18:01 44.81938 20.29378 306 ft 4 kts
2026-04-26 18:02 44.81916 20.29366 307 ft 3 kts 32°
2026-04-26 18:02 44.81912 20.29363 307 ft 0 kts 32°
2026-04-26 18:06 44.81922 20.29371 307 ft 4 kts 32°
2026-04-26 18:06 44.81952 20.29398 307 ft 7 kts 32°
2026-04-26 18:07 44.82001 20.29441 309 ft 10 kts 32°
2026-04-26 18:07 44.82065 20.29497 308 ft 12 kts 32°
2026-04-26 18:07 44.82098 20.29527 308 ft 0 kts 32°
2026-04-26 18:07 44.82105 20.29534 309 ft 4 kts 39°
2026-04-26 18:08 44.82102 20.29618 308 ft 10 kts 118°
2026-04-26 18:08 44.82059 20.29718 307 ft 14 kts 122°
2026-04-26 18:08 44.82001 20.29848 307 ft 17 kts 122°
2026-04-26 18:08 44.81932 20.30003 307 ft 20 kts 122°
2026-04-26 18:09 44.81856 20.30176 307 ft 22 kts 122°
2026-04-26 18:09 44.81777 20.30354 308 ft 20 kts 122°
2026-04-26 18:09 44.81710 20.30504 308 ft 19 kts 122°
2026-04-26 18:09 44.81635 20.30671 308 ft 21 kts 122°
2026-04-26 18:10 44.81553 20.30856 306 ft 24 kts 122°
2026-04-26 18:10 44.81491 20.30996 307 ft 15 kts 122°
2026-04-26 18:10 44.81433 20.31127 306 ft 17 kts 122°
2026-04-26 18:10 44.81366 20.31279 306 ft 19 kts 122°
2026-04-26 18:11 44.81306 20.31414 308 ft 7 kts 122°
2026-04-26 18:11 44.81274 20.31487 307 ft 11 kts 122°
2026-04-26 18:11 44.81226 20.31595 308 ft 16 kts 122°
2026-04-26 18:11 44.81163 20.31738 307 ft 18 kts 122°
2026-04-26 18:12 44.81091 20.31901 307 ft 21 kts 122°
2026-04-26 18:12 44.81025 20.32051 306 ft 13 kts 122°
2026-04-26 18:12 44.80990 20.32145 306 ft 10 kts 103°
2026-04-26 18:12 44.81007 20.32237 305 ft 10 kts 53°
2026-04-26 18:13 44.81054 20.32285 307 ft 0 kts 23°
2026-04-26 18:14 44.81105 20.32304 306 ft 22 kts
2026-04-26 18:14 44.81254 20.32237 308 ft 24 kts 306°
2026-04-26 18:14 44.81374 20.31971 309 ft 62 kts 302°
2026-04-26 18:14 44.81779 20.31065 307 ft 150 kts 302°
2026-04-26 18:15 44.82399 20.29705 873 ft 173 kts 306°
2026-04-26 18:15 44.83110 20.28185 1597 ft 199 kts 306°
2026-04-26 18:15 44.83880 20.26461 2513 ft 219 kts 305°
2026-04-26 18:15 44.84694 20.24603 3759 ft 225 kts 304°
2026-04-26 18:16 44.85521 20.22705 5045 ft 231 kts 304°
2026-04-26 18:16 44.87204 20.18848 5878 ft 229 kts 304°
2026-04-26 18:16 44.88033 20.16950 6001 ft 226 kts 305°
2026-04-26 18:17 44.88865 20.15032 6478 ft 237 kts 302°
2026-04-26 18:17 44.89470 20.12778 7527 ft 251 kts 291°
2026-04-26 18:17 44.90015 20.10404 8757 ft 258 kts 290°
2026-04-26 18:17 44.90570 20.07966 9980 ft 264 kts 290°
2026-04-26 18:18 44.91135 20.05468 11089 ft 270 kts 290°
2026-04-26 18:18 44.91709 20.02917 12232 ft 275 kts 290°
2026-04-26 18:18 44.92289 20.00317 13359 ft 280 kts 290°
2026-04-26 18:18 44.92879 19.97671 14421 ft 285 kts 291°
2026-04-26 18:19 44.93483 19.94980 15384 ft 291 kts 291°
2026-04-26 18:19 44.94101 19.92231 16318 ft 297 kts 290°
2026-04-26 18:19 44.94732 19.89418 17247 ft 304 kts 290°
2026-04-26 18:19 44.95375 19.86547 18171 ft 310 kts 290°
2026-04-26 18:20 44.96023 19.83650 18995 ft 316 kts 290°
2026-04-26 18:20 44.96690 19.80663 19753 ft 322 kts 290°
2026-04-26 18:20 44.97365 19.77638 20053 ft 323 kts 290°
2026-04-26 18:20 44.97812 19.75629 20136 ft 323 kts 290°
2026-04-26 18:21 44.98710 19.71578 20183 ft 323 kts 289°
2026-04-26 18:21 44.99381 19.68545 20267 ft 326 kts 289°
2026-04-26 18:21 45.00060 19.65474 21143 ft 328 kts 289°
2026-04-26 18:21 45.00743 19.62385 22049 ft 331 kts 289°
2026-04-26 18:22 45.01434 19.59262 22919 ft 335 kts 289°
2026-04-26 18:22 45.02131 19.56105 23764 ft 339 kts 289°
2026-04-26 18:22 45.02838 19.52901 24481 ft 343 kts 288°
2026-04-26 18:22 45.03550 19.49670 25194 ft 346 kts 288°
2026-04-26 18:23 45.04271 19.46398 25894 ft 350 kts 288°
2026-04-26 18:23 45.04988 19.43131 26591 ft 354 kts 288°
2026-04-26 18:23 45.05722 19.39779 27299 ft 358 kts 288°
2026-04-26 18:23 45.06460 19.36393 28005 ft 362 kts 287°
2026-04-26 18:24 45.07205 19.32971 28710 ft 366 kts 287°
2026-04-26 18:24 45.07957 19.29517 29407 ft 370 kts 287°
2026-04-26 18:24 45.08717 19.26021 30080 ft 373 kts 287°
2026-04-26 18:24 45.09484 19.22486 30663 ft 377 kts 287°
2026-04-26 18:25 45.10256 19.18918 31218 ft 381 kts 287°
2026-04-26 18:25 45.11035 19.15315 31780 ft 384 kts 287°
2026-04-26 18:25 45.11821 19.11679 32346 ft 388 kts 287°
2026-04-26 18:25 45.12533 19.07983 32894 ft 391 kts 280°
2026-04-26 18:26 45.12826 19.04131 33326 ft 397 kts 273°
2026-04-26 18:26 45.12978 19.00260 33890 ft 399 kts 273°
2026-04-26 18:26 45.13131 18.96333 34508 ft 399 kts 273°
2026-04-26 18:26 45.13286 18.92412 35008 ft 399 kts 273°
2026-04-26 18:27 45.13444 18.88491 35153 ft 397 kts 274°
2026-04-26 18:27 45.13602 18.84580 35189 ft 396 kts 274°
2026-04-26 18:27 45.13911 18.76829 35189 ft 395 kts 274°
2026-04-26 18:28 45.14216 18.69054 35188 ft 395 kts 273°
2026-04-26 18:28 45.14511 18.61301 35186 ft 393 kts 273°
2026-04-26 18:29 45.14801 18.53562 35182 ft 393 kts 273°
2026-04-26 18:29 45.15082 18.45834 35185 ft 393 kts 273°
2026-04-26 18:30 45.15355 18.38111 35188 ft 393 kts 273°
2026-04-26 18:30 45.15631 18.30391 35185 ft 392 kts 273°
2026-04-26 18:31 45.15902 18.22727 35182 ft 392 kts 273°
2026-04-26 18:31 45.16162 18.15007 35182 ft 392 kts 273°
2026-04-26 18:32 45.16415 18.07292 35180 ft 392 kts 273°
2026-04-26 18:32 45.16666 17.99570 35180 ft 392 kts 273°
2026-04-26 18:33 45.16917 17.91853 35179 ft 392 kts 273°
2026-04-26 18:33 45.17158 17.84136 35179 ft 392 kts 273°
2026-04-26 18:34 45.17387 17.76474 35174 ft 392 kts 273°
2026-04-26 18:34 45.17614 17.68739 35171 ft 393 kts 273°
2026-04-26 18:35 45.17840 17.60999 35172 ft 393 kts 273°
2026-04-26 18:35 45.18063 17.53249 35172 ft 393 kts 272°
2026-04-26 18:36 45.18280 17.45507 35169 ft 392 kts 272°
2026-04-26 18:36 45.18489 17.37823 35169 ft 392 kts 272°
2026-04-26 18:37 45.18697 17.30092 35169 ft 392 kts 272°
2026-04-26 18:37 45.18896 17.22365 35170 ft 392 kts 272°
2026-04-26 18:38 45.19088 17.14633 35164 ft 392 kts 272°
2026-04-26 18:38 45.19274 17.06900 35164 ft 392 kts 272°
2026-04-26 18:39 45.19364 17.03032 35014 ft 393 kts 272°
2026-04-26 18:39 45.19451 16.99153 34378 ft 394 kts 272°
2026-04-26 18:39 45.19540 16.95324 33768 ft 392 kts 272°
2026-04-26 18:39 45.19633 16.91476 33171 ft 389 kts 272°
2026-04-26 18:40 45.19724 16.87654 32602 ft 386 kts 272°
2026-04-26 18:40 45.19813 16.83858 32044 ft 383 kts 272°
2026-04-26 18:40 45.19895 16.80094 31501 ft 380 kts 272°
2026-04-26 18:40 45.19973 16.76355 30980 ft 377 kts 273°
2026-04-26 18:41 45.20050 16.72650 30480 ft 375 kts 273°
2026-04-26 18:41 45.20127 16.68971 29948 ft 372 kts 273°
2026-04-26 18:41 45.20173 16.65313 29390 ft 370 kts 271°
2026-04-26 18:41 45.20143 16.61676 28871 ft 368 kts 270°
2026-04-26 18:42 45.20065 16.58062 28366 ft 365 kts 269°
2026-04-26 18:42 45.19971 16.54470 27862 ft 363 kts 269°
2026-04-26 18:42 45.19877 16.50907 27352 ft 361 kts 269°
2026-04-26 18:42 45.19796 16.47408 26851 ft 358 kts 269°
2026-04-26 18:43 45.19724 16.43888 26349 ft 356 kts 270°
2026-04-26 18:43 45.19658 16.40392 25841 ft 353 kts 270°
2026-04-26 18:43 45.19594 16.36919 25327 ft 351 kts 269°
2026-04-26 18:43 45.19532 16.33466 24854 ft 348 kts 269°
2026-04-26 18:44 45.19465 16.30049 24350 ft 346 kts 269°
2026-04-26 18:44 45.19394 16.26654 23841 ft 344 kts 269°
2026-04-26 18:44 45.19323 16.23273 23275 ft 342 kts 269°
2026-04-26 18:44 45.19254 16.19908 22762 ft 339 kts 269°
2026-04-26 18:45 45.19187 16.16575 22228 ft 337 kts 269°
2026-04-26 18:45 45.19121 16.13262 21724 ft 335 kts 269°
2026-04-26 18:45 45.19051 16.10003 21266 ft 335 kts 269°
2026-04-26 18:45 45.18977 16.06698 21146 ft 335 kts 270°
2026-04-26 18:46 45.18903 16.03400 21162 ft 336 kts 269°
2026-04-26 18:46 45.18827 16.00101 21164 ft 335 kts 270°
2026-04-26 18:46 45.18751 15.96800 21157 ft 334 kts 269°
2026-04-26 18:46 45.18676 15.93502 21163 ft 335 kts 269°
2026-04-26 18:47 45.18598 15.90197 21164 ft 336 kts 269°
2026-04-26 18:47 45.18522 15.86881 21162 ft 336 kts 269°
2026-04-26 18:47 45.18446 15.83573 21159 ft 336 kts 269°
2026-04-26 18:47 45.18366 15.80265 21161 ft 335 kts 269°
2026-04-26 18:48 45.18312 15.78079 21163 ft 335 kts 268°
2026-04-26 18:48 45.18228 15.74773 21163 ft 335 kts 269°
2026-04-26 18:48 45.18116 15.70393 21154 ft 336 kts 268°
2026-04-26 18:48 45.18058 15.68158 21109 ft 334 kts 268°
2026-04-26 18:49 45.17972 15.64878 20642 ft 332 kts 269°
2026-04-26 18:49 45.17889 15.61660 20173 ft 330 kts 269°
2026-04-26 18:49 45.17802 15.58422 19737 ft 328 kts 269°
2026-04-26 18:49 45.17715 15.55201 19281 ft 326 kts 269°
2026-04-26 18:50 45.17628 15.51991 18826 ft 325 kts 268°
2026-04-26 18:50 45.17543 15.48794 18383 ft 324 kts 268°
2026-04-26 18:50 45.17432 15.45603 17900 ft 323 kts 263°
2026-04-26 18:50 45.16836 15.42552 17471 ft 321 kts 250°
2026-04-26 18:51 45.16073 15.39577 16959 ft 321 kts 251°
2026-04-26 18:51 45.15307 15.36602 16446 ft 322 kts 250°
2026-04-26 18:51 45.14538 15.33630 15934 ft 318 kts 251°
2026-04-26 18:51 45.13792 15.30754 15440 ft 312 kts 250°
2026-04-26 18:52 45.13047 15.27885 14947 ft 309 kts 251°
2026-04-26 18:52 45.12310 15.25041 14466 ft 306 kts 251°
2026-04-26 18:52 45.11579 15.22228 13991 ft 303 kts 251°
2026-04-26 18:52 45.10851 15.19432 13466 ft 301 kts 250°
2026-04-26 18:53 45.10124 15.16639 12951 ft 303 kts 250°
2026-04-26 18:53 45.09392 15.13829 12437 ft 304 kts 250°
2026-04-26 18:53 45.08666 15.11041 11914 ft 298 kts 250°
2026-04-26 18:53 45.07959 15.08333 11428 ft 297 kts 250°
2026-04-26 18:54 45.07240 15.05585 10933 ft 298 kts 250°
2026-04-26 18:54 45.06525 15.02856 10667 ft 294 kts 250°
2026-04-26 18:54 45.05819 15.00161 10301 ft 291 kts 249°
2026-04-26 18:54 45.05118 14.97491 9864 ft 289 kts 249°
2026-04-26 18:55 45.04417 14.94833 9401 ft 288 kts 249°
2026-04-26 18:55 45.03720 14.92191 8939 ft 286 kts 249°
2026-04-26 18:55 45.03031 14.89566 8461 ft 284 kts 249°
2026-04-26 18:55 45.02347 14.86958 8079 ft 281 kts 249°
2026-04-26 18:56 45.01664 14.84365 8012 ft 282 kts 249°
2026-04-26 18:56 45.00978 14.81768 7960 ft 283 kts 249°
2026-04-26 18:56 45.00291 14.79170 7703 ft 280 kts 249°
2026-04-26 18:56 44.99613 14.76607 7539 ft 279 kts 248°
2026-04-26 18:57 44.98930 14.74028 7414 ft 280 kts 249°
2026-04-26 18:57 44.98478 14.72319 7334 ft 280 kts 249°
2026-04-26 18:57 44.97564 14.68869 7164 ft 280 kts 249°
2026-04-26 18:57 44.96889 14.66331 7044 ft 279 kts 249°
2026-04-26 18:58 44.96214 14.63790 6915 ft 269 kts 249°
2026-04-26 18:58 44.95576 14.61388 6797 ft 254 kts 249°
2026-04-26 18:58 44.94973 14.59113 6673 ft 241 kts 249°
2026-04-26 18:58 44.94388 14.56919 6554 ft 241 kts 248°
2026-04-26 18:59 44.93790 14.54696 6427 ft 243 kts 248°
2026-04-26 18:59 44.93191 14.52467 6302 ft 243 kts 248°
2026-04-26 18:59 44.92591 14.50231 6179 ft 243 kts 248°
2026-04-26 18:59 44.91990 14.47993 6039 ft 244 kts 248°
2026-04-26 19:00 44.91373 14.45698 5923 ft 263 kts 248°
2026-04-26 19:00 44.90740 14.43345 5782 ft 246 kts 248°
2026-04-26 19:00 44.90315 14.41120 5656 ft 227 kts 262°
2026-04-26 19:00 44.90252 14.38982 5529 ft 210 kts 268°
2026-04-26 19:01 44.90220 14.36994 5441 ft 194 kts 268°
2026-04-26 19:01 44.90186 14.35171 5307 ft 179 kts 268°
2026-04-26 19:01 44.90155 14.33493 5181 ft 168 kts 268°
2026-04-26 19:01 44.90127 14.31898 5049 ft 157 kts 268°
2026-04-26 19:02 44.90100 14.30403 4930 ft 149 kts 267°
2026-04-26 19:02 44.90073 14.28945 4805 ft 148 kts 267°
2026-04-26 19:02 44.90047 14.27495 4684 ft 147 kts 268°
2026-04-26 19:02 44.90029 14.26525 4597 ft 145 kts 268°
2026-04-26 19:03 44.89995 14.24644 4426 ft 145 kts 268°
2026-04-26 19:03 44.89969 14.23232 4362 ft 144 kts 268°
2026-04-26 19:03 44.89942 14.21808 4232 ft 145 kts 267°
2026-04-26 19:03 44.89916 14.20390 4056 ft 145 kts 267°
2026-04-26 19:04 44.89889 14.18966 3872 ft 146 kts 267°
2026-04-26 19:04 44.89862 14.17529 3674 ft 147 kts 268°
2026-04-26 19:04 44.89834 14.16091 3474 ft 150 kts 268°
2026-04-26 19:04 44.89806 14.14612 3265 ft 152 kts 268°
2026-04-26 19:05 44.89748 14.11627 2827 ft 152 kts 268°
2026-04-26 19:05 44.89720 14.10165 2620 ft 146 kts 268°
2026-04-26 19:05 44.89692 14.08759 2417 ft 141 kts 269°
2026-04-26 19:06 44.89665 14.07398 2226 ft 137 kts 269°
2026-04-26 19:06 44.89638 14.06068 2044 ft 135 kts 269°
2026-04-26 19:06 44.89612 14.04756 1856 ft 133 kts 269°
2026-04-26 19:06 44.89586 14.03456 1669 ft 132 kts 269°
2026-04-26 19:07 44.89560 14.02163 1483 ft 131 kts 269°
2026-04-26 19:07 44.89533 14.00879 1298 ft 131 kts 270°
2026-04-26 19:07 44.89507 13.99602 1116 ft 130 kts 270°
2026-04-26 19:07 44.89481 13.98338 948 ft 126 kts 270°
2026-04-26 19:08 44.89456 13.97153 779 ft 120 kts 270°
2026-04-26 19:08 44.89433 13.95986 617 ft 118 kts 270°
2026-04-26 19:08 44.89410 13.94825 458 ft 119 kts 272°
2026-04-26 19:08 44.89384 13.93647 294 ft 121 kts 271°
2026-04-26 19:09 44.89362 13.92558 216 ft 93 kts 268°
2026-04-26 19:09 44.89348 13.91922 206 ft 41 kts 268°
2026-04-26 19:09 44.89341 13.91610 204 ft 32 kts 268°
2026-04-26 19:09 44.89334 13.91289 198 ft 29 kts 269°
2026-04-26 19:10 44.89327 13.90996 187 ft 27 kts 268°
2026-04-26 19:10 44.89324 13.90801 184 ft 20 kts 268°
2026-04-26 19:10 44.89318 13.90576 179 ft 24 kts 268°
2026-04-26 19:10 44.89319 13.90416 178 ft 12 kts 283°
2026-04-26 19:11 44.89380 13.90383 178 ft 11 kts 24°
2026-04-26 19:11 44.89433 13.90451 179 ft 11 kts 46°
2026-04-26 19:11 44.89488 13.90535 180 ft 8 kts 47°
2026-04-26 19:11 44.89516 13.90580 182 ft 6 kts 53°
2026-04-26 19:12 44.89536 13.90634 201 ft 7 kts 71°
2026-04-26 19:12 44.89542 13.90709 195 ft 9 kts 88°
2026-04-26 19:12 44.89546 13.90812 198 ft 12 kts 86°
2026-04-26 19:12 44.89550 13.90932 187 ft 13 kts 88°
2026-04-26 19:13 44.89550 13.91056 190 ft 13 kts 89°
2026-04-26 19:13 44.89553 13.91190 192 ft 15 kts 88°
2026-04-26 19:13 44.89556 13.91348 192 ft 16 kts 88°
2026-04-26 19:13 44.89559 13.91513 200 ft 17 kts 88°
2026-04-26 19:14 44.89563 13.91674 203 ft 15 kts 88°
2026-04-26 19:14 44.89566 13.91810 211 ft 12 kts 88°
2026-04-26 19:14 44.89572 13.91916 216 ft 10 kts 74°
2026-04-26 19:14 44.89591 13.91976 223 ft 10 kts 65°
2026-04-26 19:15 44.89628 13.92110 219 ft 13 kts 88°
2026-04-26 19:15 44.89630 13.92252 219 ft 16 kts 89°
2026-04-26 19:15 44.89634 13.92383 219 ft 10 kts 87°
2026-04-26 19:15 44.89670 13.92455 219 ft 11 kts
2026-04-26 19:16 44.89716 13.92415 219 ft 9 kts 282°
2026-04-26 19:16 44.89746 13.92382 219 ft 3 kts 22°
2026-04-26 19:16 44.89760 13.92398 223 ft 0 kts 43°
2026-04-26 19:16 44.89760 13.92399 223 ft 0 kts 43°